Simultaneous Nadir Overpasses (SNOs) Predictions

Prediction of SNOs between METOP-A and TERRA Satellite Orbit:

Table of predicted SNOs for the next 14.0 days since TLE Epoch: 5/31/2014
Index Date (METOP-A) Time (METOP-A) Lat,Lon (METOP-A) SZA (METOP-A ) Date (TERRA) Time (TERRA) Lat,Lon (TERRA) SZA (TERRA ) Distance(km) Time Diff (sec)
1 06/02/2014 04:24:44 -81.27, -19.68 117.99 06/02/2014 04:25:29 -81.28, -19.49 117.94 3.16 45
2 06/02/2014 05:15:24 81.28, 148.17 62.08 06/02/2014 05:14:55 81.29, 148.31 62.08 2.35 29
3 06/04/2014 23:59:06 -81.28, 46.83 118.33 06/04/2014 23:59:45 -81.27, 46.75 118.32 1.71 39
4 06/05/2014 00:49:46 81.28,-145.35 61.74 06/05/2014 00:49:11 81.27,-145.49 61.70 2.68 35
5 06/07/2014 19:33:27 -81.28, 113.31 118.62 06/07/2014 19:33:59 -81.27, 113.25 118.61 1.19 32
6 06/07/2014 20:24:07 81.28, -78.90 61.44 06/07/2014 20:23:25 81.27, -79.03 61.40 2.38 42
7 06/10/2014 15:07:49 -81.28, 179.76 118.86 06/10/2014 15:08:14 -81.27, 179.65 118.87 2.22 25
8 06/10/2014 15:58:29 81.28, -12.47 61.19 06/10/2014 15:57:39 81.29, -12.29 61.20 3.23 50
9 06/13/2014 10:42:11 -81.28,-113.81 119.06 06/13/2014 10:42:28 -81.28,-113.70 119.04 1.99 17




NCC Satellite Simultaneous Nadir Overpasses (SNOs) Prediction Service
